• In Netherlands
  • List of Countries
  • For 7 days
  • Water Temperature
  • Satellite Maps
  • Weather Map
  • Weather Widgets
  • user-avatar
    Login

    Hourly Weather Bansko

    Today, 16 August, Wednesday

    Time Temperature Precipitation Wind Pressure Humidity
    00:00 +20°C° 0 mm 2 mps 722 mmHg 74%
    01:00 +19°C° 0 mm 2 mps 722 mmHg 75%
    02:00 +20°C° 0 mm 2 mps 722 mmHg 75%
    03:00 +19°C° 0 mm 2 mps 722 mmHg 76%
    04:00 +19°C° 0 mm 2 mps 722 mmHg 77%
    05:00 +19°C° 0 mm 2 mps 722 mmHg 78%
    06:00 +20°C° 0 mm 2 mps 722 mmHg 71%
    07:00 +23°C° 0 mm 2 mps 722 mmHg 64%
    08:00 +25°C° 0 mm 3 mps 722 mmHg 55%
    09:00 +27°C° 0 mm 3 mps 722 mmHg 49%
    10:00 +29°C° 0 mm 3 mps 722 mmHg 43%
    11:00 +30°C° 0 mm 4 mps 722 mmHg 38%
    12:00 +32°C° 0 mm 4 mps 722 mmHg 36%
    13:00 +33°C° 0 mm 4 mps 722 mmHg 35%
    14:00 +33°C° 0 mm 4 mps 722 mmHg 34%
    15:00 +33°C° 0.1 mm 4 mps 722 mmHg 35%
    16:00 +32°C° 0.1 mm 4 mps 721 mmHg 36%
    17:00 +32°C° 0.1 mm 4 mps 721 mmHg 37%
    18:00 +28°C° 0 mm 3 mps 721 mmHg 45%
    19:00 +26°C° 0 mm 3 mps 721 mmHg 52%
    20:00 +24°C° 0 mm 2 mps 721 mmHg 59%
    21:00 +23°C° 0 mm 2 mps 721 mmHg 62%
    22:00 +21°C° 0 mm 2 mps 721 mmHg 65%
    23:00 +21°C° 0 mm 1 mps 721 mmHg 68%

    Tomorrow, 17 August, Thursday

    Time Temperature Precipitation Wind Pressure Humidity
    00:00 +21°C° 0 mm 1 mps 721 mmHg 68%
    01:00 +20°C° 0 mm 1 mps 721 mmHg 68%
    02:00 +20°C° 0 mm 1 mps 721 mmHg 69%
    03:00 +20°C° 0 mm 1 mps 721 mmHg 69%
    04:00 +19°C° 0 mm 1 mps 721 mmHg 69%
    05:00 +19°C° 0 mm 1 mps 721 mmHg 70%
    06:00 +20°C° 0 mm 2 mps 721 mmHg 64%
    07:00 +23°C° 0 mm 2 mps 721 mmHg 57%
    08:00 +25°C° 0 mm 2 mps 722 mmHg 51%
    09:00 +27°C° 0 mm 2 mps 722 mmHg 45%
    10:00 +29°C° 0 mm 3 mps 722 mmHg 39%
    11:00 +31°C° 0 mm 3 mps 722 mmHg 34%
    12:00 +31°C° 0 mm 3 mps 722 mmHg 32%
    13:00 +33°C° 0 mm 3 mps 721 mmHg 31%
    14:00 +33°C° 0 mm 3 mps 721 mmHg 29%
    15:00 +33°C° 0 mm 4 mps 721 mmHg 31%
    16:00 +32°C° 0 mm 4 mps 721 mmHg 32%
    17:00 +32°C° 0 mm 4 mps 721 mmHg 34%
    18:00 +28°C° 0 mm 3 mps 721 mmHg 41%
    19:00 +26°C° 0 mm 3 mps 721 mmHg 48%
    20:00 +24°C° 0 mm 2 mps 721 mmHg 55%
    21:00 +23°C° 0 mm 2 mps 721 mmHg 57%
    22:00 +21°C° 0 mm 2 mps 721 mmHg 59%
    23:00 +20°C° 0 mm 2 mps 721 mmHg 61%

    Day after tomorrow, 18 August, Friday

    Time Temperature Precipitation Wind Pressure Humidity
    00:00 +21°C° 0 mm 1 mps 721 mmHg 61%
    01:00 +20°C° 0 mm 1 mps 721 mmHg 61%
    02:00 +20°C° 0 mm 1 mps 721 mmHg 60%
    03:00 +20°C° 0 mm 1 mps 721 mmHg 60%
    04:00 +20°C° 0 mm 1 mps 721 mmHg 61%
    05:00 +19°C° 0 mm 1 mps 721 mmHg 61%
    06:00 +21°C° 0 mm 1 mps 722 mmHg 55%
    07:00 +23°C° 0 mm 1 mps 722 mmHg 50%
    08:00 +26°C° 0 mm 1 mps 723 mmHg 45%
    09:00 +27°C° 0 mm 2 mps 723 mmHg 40%
    10:00 +29°C° 0 mm 2 mps 723 mmHg 35%
    11:00 +31°C° 0 mm 2 mps 723 mmHg 30%
    12:00 +32°C° 0 mm 2 mps 723 mmHg 30%
    13:00 +33°C° 0 mm 3 mps 722 mmHg 29%
    14:00 +33°C° 0 mm 3 mps 722 mmHg 28%
    15:00 +33°C° 0 mm 3 mps 722 mmHg 29%
    16:00 +33°C° 0 mm 3 mps 722 mmHg 30%
    17:00 +31°C° 0 mm 3 mps 721 mmHg 31%
    18:00 +29°C° 0 mm 2 mps 721 mmHg 38%
    19:00 +26°C° 0 mm 2 mps 721 mmHg 44%
    20:00 +24°C° 0 mm 2 mps 721 mmHg 50%
    21:00 +23°C° 0 mm 1 mps 722 mmHg 52%
    22:00 +22°C° 0 mm 1 mps 722 mmHg 54%
    23:00 +22°C° 0 mm 1 mps 722 mmHg 56%

    19 August, Saturday

    Time Temperature Precipitation Wind Pressure Humidity
    00:00 +21°C° 0 mm 1 mps 722 mmHg 57%
    01:00 +21°C° 0 mm 1 mps 722 mmHg 57%
    02:00 +21°C° 0 mm 1 mps 722 mmHg 58%
    03:00 +20°C° 0 mm 1 mps 722 mmHg 59%
    04:00 +20°C° 0 mm 1 mps 721 mmHg 59%
    05:00 +20°C° 0 mm 1 mps 721 mmHg 59%
    06:00 +22°C° 0 mm 1 mps 722 mmHg 53%
    07:00 +24°C° 0 mm 1 mps 722 mmHg 48%
    08:00 +26°C° 0 mm 1 mps 722 mmHg 42%
    09:00 +28°C° 0 mm 1 mps 722 mmHg 37%
    10:00 +30°C° 0 mm 1 mps 722 mmHg 33%
    11:00 +32°C° 0 mm 1 mps 722 mmHg 29%
    12:00 +33°C° 0 mm 1 mps 722 mmHg 27%
    13:00 +33°C° 0 mm 1 mps 721 mmHg 26%
    14:00 +34°C° 0 mm 1 mps 721 mmHg 25%
    15:00 +33°C° 0 mm 1 mps 721 mmHg 25%
    16:00 +33°C° 0 mm 1 mps 720 mmHg 26%
    17:00 +32°C° 0 mm 1 mps 720 mmHg 27%
    18:00 +30°C° 0 mm 1 mps 720 mmHg 31%
    19:00 +28°C° 0 mm 1 mps 720 mmHg 35%
    20:00 +25°C° 0 mm 1 mps 720 mmHg 40%
    21:00 +24°C° 0 mm 1 mps 720 mmHg 42%
    22:00 +23°C° 0 mm 1 mps 720 mmHg 45%
    23:00 +22°C° 0 mm 1 mps 720 mmHg 47%

    20 August, Sunday

    Time Temperature Precipitation Wind Pressure Humidity
    00:00 +22°C° 0 mm 1 mps 720 mmHg 48%
    01:00 +22°C° 0 mm 1 mps 720 mmHg 49%
    02:00 +21°C° 0 mm 1 mps 720 mmHg 51%
    03:00 +21°C° 0 mm 1 mps 720 mmHg 51%
    04:00 +21°C° 0 mm 1 mps 719 mmHg 52%
    05:00 +20°C° 0 mm 1 mps 719 mmHg 52%
    06:00 +23°C° 0 mm 1 mps 720 mmHg 47%
    07:00 +25°C° 0 mm 1 mps 720 mmHg 42%
    08:00 +25°C° 0 mm 0 mps 721 mmHg 38%
    09:00 +29°C° 0 mm 1 mps 721 mmHg 34%
    10:00 +31°C° 0 mm 1 mps 721 mmHg 30%
    11:00 +33°C° 0 mm 1 mps 721 mmHg 26%
    12:00 +33°C° 0 mm 1 mps 720 mmHg 26%
    13:00 +33°C° 0 mm 1 mps 720 mmHg 26%
    14:00 +34°C° 0 mm 1 mps 720 mmHg 26%
    15:00 +33°C° 0 mm 1 mps 719 mmHg 28%
    16:00 +32°C° 0 mm 1 mps 719 mmHg 30%
    17:00 +31°C° 0 mm 1 mps 719 mmHg 33%
    18:00 +29°C° 0 mm 2 mps 719 mmHg 37%
    19:00 +28°C° 0 mm 2 mps 719 mmHg 41%
    20:00 +26°C° 0 mm 2 mps 719 mmHg 45%
    21:00 +25°C° 0.1 mm 2 mps 719 mmHg 50%
    22:00 +24°C° 0.1 mm 1 mps 719 mmHg 55%
    23:00 +23°C° 0.1 mm 1 mps 720 mmHg 60%

    21 August, Monday

    Time Temperature Precipitation Wind Pressure Humidity
    00:00 +22°C° 0.2 mm 1 mps 720 mmHg 64%
    01:00 +21°C° 0.2 mm 2 mps 719 mmHg 67%
    02:00 +20°C° 0.2 mm 2 mps 719 mmHg 71%
    03:00 +20°C° 0.2 mm 2 mps 719 mmHg 73%
    04:00 +20°C° 0.2 mm 2 mps 719 mmHg 76%
    05:00 +19°C° 0.2 mm 2 mps 719 mmHg 78%
    06:00 +20°C° 0.3 mm 2 mps 719 mmHg 76%
    07:00 +21°C° 0.3 mm 2 mps 720 mmHg 74%
    08:00 +23°C° 0.3 mm 2 mps 720 mmHg 72%
    09:00 +24°C° 0.1 mm 2 mps 720 mmHg 66%
    10:00 +25°C° 0.1 mm 2 mps 720 mmHg 60%
    11:00 +27°C° 0.1 mm 2 mps 720 mmHg 53%
    12:00 +27°C° 0.1 mm 2 mps 720 mmHg 51%
    13:00 +28°C° 0.1 mm 2 mps 720 mmHg 49%
    14:00 +29°C° 0.1 mm 3 mps 720 mmHg 46%
    15:00 +28°C° 0.4 mm 3 mps 719 mmHg 48%
    16:00 +28°C° 0.4 mm 3 mps 719 mmHg 50%
    17:00 +27°C° 0.4 mm 3 mps 719 mmHg 51%
    18:00 +26°C° 0.5 mm 2 mps 719 mmHg 58%
    19:00 +24°C° 0.5 mm 2 mps 719 mmHg 65%
    20:00 +21°C° 0.5 mm 2 mps 720 mmHg 72%
    21:00 +20°C° 0.4 mm 2 mps 720 mmHg 76%
    22:00 +20°C° 0.4 mm 2 mps 720 mmHg 80%
    23:00 +19°C° 0.4 mm 2 mps 720 mmHg 84%
    Show more